Location: Lafig�re
(44.4503°N, 4.0357°E)
Time: 15:39:26
(UTC+00:00)

Transit 2A Rocket - Pass Details

Date: 27 January 2021
Orbit: 594 x 908 km, 66.7° (Epoch: 06 March)

Event Time Altitude Azimuth Distance (km) Brightness Sun altitude
Rises 12:12:01 0° 238° (WSW) 3,309 8.8 27.1°
Reaches altitude 10° 12:14:46 10° 248° (WSW) 2,328 7.9 27.1°
Maximum altitude 12:19:31 32° 311° (NW) 1,237 6.0 27.0°
Drops below altitude 10° 12:23:55 10° 15° (NNE) 2,150 6.9 26.9°
Sets 12:26:23 0° 26° (NNE) 3,020 7.6 26.9°
